Location: Banios
(43.0451°N, 0.2335°E)
Time: 13:04:10
(UTC+00:00)

A-11 Canister half - All Passes

Search period start: 08 May 2021 00:00
Search period end: 18 May 2021 00:00
Orbit: 1514 x 1685 km, 47.2° (Epoch: 07 May)

Date Brightness Start Highest point End Pass type
(mag) Time Alt. Az. Time Alt. Az. Time Alt. Az.
08 May - 00:01:56 10° W 00:09:04 24° SW 00:16:22 10° S visible
08 May - 13:19:15 10° SSE 13:23:49 15° SE 13:28:22 10° E daylight
08 May - 15:18:09 10° SW 15:27:00 53° SE 15:35:55 10° ENE daylight
08 May - 17:22:24 10° WSW 17:31:40 79° NNW 17:41:07 10° ENE daylight
08 May - 19:27:57 10° WNW 19:37:15 71° N 19:46:49 10° E visible
08 May - 21:33:04 10° WNW 21:42:23 72° SSW 21:52:03 10° SE visible
08 May - 23:38:52 10° W 23:46:14 26° SW 23:53:47 10° S visible
09 May - 12:57:08 10° SSE 13:01:02 13° ESE 13:04:55 10° E daylight
09 May - 14:55:22 10° SSW 15:04:09 50° SE 15:12:58 10° ENE daylight
09 May - 16:59:27 10° WSW 17:08:44 80° NNW 17:18:10 10° ENE daylight
09 May - 19:05:01 10° WNW 19:14:18 70° N 19:23:49 10° E daylight
09 May - 21:10:09 10° WNW 21:19:29 75° SSW 21:29:08 10° SE visible
09 May - 23:15:49 10° WNW 23:23:24 28° SW 23:31:10 10° S visible
10 May - 12:35:13 10° SE 12:38:14 12° ESE 12:41:17 10° ESE daylight
10 May - 14:32:36 10° SSW 14:41:18 48° SE 14:50:01 10° ENE daylight
10 May - 16:36:32 10° WSW 16:45:48 82° NNW 16:55:13 10° ENE daylight
10 May - 18:42:05 10° WNW 18:51:20 70° N 19:00:50 10° E daylight
10 May - 20:47:15 10° WNW 20:56:35 77° SSW 21:06:13 10° SE visible
10 May - 22:52:48 10° WNW 23:00:33 30° SW 23:08:32 10° S visible
11 May - 12:13:46 10° SE 12:15:28 11° ESE 12:17:10 10° ESE daylight
11 May - 14:09:50 10° SSW 14:18:28 45° SE 14:27:04 10° ENE daylight
11 May - 16:13:36 10° WSW 16:22:53 84° NNW 16:32:16 10° ENE daylight
11 May - 18:19:08 10° W 18:28:23 69° N 18:37:51 10° E daylight
11 May - 20:24:20 10° WNW 20:33:40 80° SSW 20:43:18 10° ESE visible
11 May - 22:29:47 10° WNW 22:37:43 32° SW 22:45:52 10° S visible
12 May - 13:47:05 10° SSW 13:55:37 43° SE 14:04:06 10° ENE daylight
12 May - 15:50:41 10° WSW 15:59:57 86° NNW 16:09:20 10° ENE daylight
12 May - 17:56:11 10° W 18:05:26 69° N 18:14:52 10° E daylight
12 May - 20:01:25 10° WNW 20:10:46 83° SSW 20:20:22 10° ESE visible
12 May - 22:06:47 10° WNW 22:14:52 34° SW 22:23:11 10° SSE visible
13 May - 13:24:21 10° SSW 13:32:47 40° SE 13:41:09 10° ENE daylight
13 May - 15:27:45 10° WSW 15:37:03 89° NNW 15:46:24 10° ENE daylight
13 May - 17:33:15 10° W 17:42:29 69° N 17:51:53 10° E daylight
13 May - 19:38:31 10° WNW 19:47:50 86° SSW 19:57:26 10° ESE visible
13 May - 21:43:48 10° WNW 21:52:02 36° SW 22:00:28 10° SSE visible
14 May - 13:01:38 10° SSW 13:09:56 38° SE 13:18:10 10° ENE daylight
14 May - 15:04:50 10° WSW 15:14:08 89° SSE 15:23:28 10° ENE daylight
14 May - 17:10:18 10° W 17:19:32 68° N 17:28:53 10° E daylight
14 May - 19:15:36 10° WNW 19:24:56 88° SSW 19:34:30 10° ESE daylight
14 May - 21:20:50 10° WNW 21:29:11 38° SW 21:37:45 10° SSE visible
15 May - 12:38:56 10° SSW 12:47:07 36° SE 12:55:11 10° ENE daylight
15 May - 14:41:55 10° WSW 14:51:13 86° SSE 15:00:32 10° ENE daylight
15 May - 16:47:21 10° W 16:56:35 69° N 17:05:56 10° E daylight
15 May - 18:52:41 10° WNW 19:02:01 89° NNE 19:11:33 10° ESE daylight
15 May - 20:57:52 10° WNW 21:06:20 40° SW 21:15:01 10° SSE visible
16 May - 12:16:16 10° SSW 12:24:17 33° SE 12:32:12 10° ENE daylight
16 May - 14:19:00 10° WSW 14:28:19 84° SSE 14:37:37 10° ENE daylight
16 May - 16:24:23 10° W 16:33:37 69° N 16:42:57 10° E daylight
16 May - 18:29:47 10° WNW 18:39:06 87° NNE 18:48:37 10° ESE daylight
16 May - 20:34:55 10° WNW 20:43:28 42° SW 20:52:16 10° SSE visible
17 May - 11:53:36 10° S 12:01:27 31° SE 12:09:12 10° ENE daylight
17 May - 13:56:07 10° WSW 14:05:25 81° SSE 14:14:41 10° ENE daylight
17 May - 16:01:26 10° W 16:10:41 69° N 16:19:59 10° E daylight
17 May - 18:06:52 10° WNW 18:16:10 85° NNE 18:25:39 10° ESE daylight
17 May - 20:11:58 10° WNW 20:20:37 45° SW 20:29:30 10° SSE visible
17 May - 22:21:42 10° WSW 22:23:42 11° WSW 22:25:43 10° SW visible
